STARLINK-1053 (44758 NORAD) Tracking and Keplerian Element Data

This shows tracking and keplerian element data for the satellite.

Feedback or suggestion? Click here.




ElementValue
Catalog44758
NameSTARLINK-1053
Epoch Orbit1035
Epoch Day17.91667824
Epoch Year2020
RAAN214.5523
Inclination53.0067
Eccentricity0.0001798
Argument of Perigee87.6531
Mean Anonmoly356.4317
Mean Motion15.05583076
Decay Rate0.00017174
L11 44758U 19074AX 20017.91667824 .00017174 00000-0 11949-2 0 9998
L22 44758 53.0067 214.5523 0001798 87.6531 356.4317 15.05583076 10356

Live tracking and technical data element details for STARLINK-1053 (NORAD 44758). STARLINK-1053 can be tracked NOW for your location showing map with azimuth and elevation plus other details from your city location.

Track the satellite on the map from your city or location and see movement details for azimuth, elevation, latitude, longitude, range, height, and movement on the map or in text.







IsCatalogInMostPopularTable: catalog: 44758, numindb: 16
Update: records affected: 1



GetName: 44758 STARLINK-1053

Hit Count: updated at: Sat, 18 Jan 2020 16:58:54 GMT